| time (UTC) | temp F | wind direction | speed knots | gust knots | rain 1hr in | rain 24hr in | rain mn in | humidity % | barometer mb |
| 20260504173028 | 72 | 360 | 0.9 | 4.3 | 0.00 | 0.00 | 0.00 | 59 | 1007.5 |
| 20260504171526 | 71 | 26 | 4.3 | 7.8 | 0.00 | 0.00 | 0.00 | 60 | 1007.7 |
| 20260504081514 | 52 | 213 | 0.0 | 0.0 | 0.00 | 0.00 | 0.00 | 89 | 1006.7 |
| 20260504060107 | 57 | 213 | 0.9 | 1.7 | 0.00 | 0.00 | 0.00 | 81 | 1006.3 |
| 20260504050106 | 59 | 213 | 0.0 | 3.5 | 0.00 | 0.00 | 0.00 | 80 | 1006.7 |
| 20260504044556 | 59 | 213 | 0.0 | 3.5 | 0.00 | 0.00 | 0.00 | 79 | 1006.7 |
| 20260504043103 | 60 | 213 | 0.0 | 1.7 | 0.00 | 0.00 | 0.00 | 79 | 1006.7 |
| 20260504041600 | 60 | 213 | 0.9 | 2.6 | 0.00 | 0.00 | 0.00 | 78 | 1006.7 |
| 20260504040055 | 62 | 213 | 0.9 | 1.7 | 0.00 | 0.00 | 0.00 | 77 | 1006.8 |
| 20260504034606 | 63 | 213 | 2.6 | 3.5 | 0.00 | 0.00 | 0.00 | 76 | 1006.7 |
| 20260504033059 | 65 | 213 | 0.0 | 1.7 | 0.00 | 0.00 | 0.00 | 74 | 1006.6 |
| 20260504031605 | 67 | 213 | 0.9 | 3.5 | 0.00 | 0.00 | 0.00 | 71 | 1006.5 |
| 20260504030112 | 68 | 213 | 0.0 | 1.7 | 0.00 | 0.00 | 0.00 | 69 | 1006.4 |
| 20260504024552 | 70 | 213 | 0.0 | 4.3 | 0.00 | 0.00 | 0.00 | 67 | 1006.5 |
| 20260504023051 | 71 | 213 | 3.5 | 5.2 | 0.00 | 0.00 | 0.00 | 64 | 1006.5 |
| 20260504021549 | 73 | 208 | 3.5 | 6.1 | 0.00 | 0.00 | 0.00 | 61 | 1006.7 |
| 20260504020051 | 76 | 201 | 1.7 | 4.3 | 0.00 | 0.00 | 0.00 | 58 | 1006.7 |
| 20260504014549 | 78 | 182 | 0.0 | 6.1 | 0.00 | 0.00 | 0.00 | 54 | 1006.7 |
| 20260504013050 | 79 | 219 | 0.9 | 4.3 | 0.00 | 0.00 | 0.00 | 45 | 1006.8 |
| 20260504011545 | 79 | 217 | 1.7 | 5.2 | 0.00 | 0.00 | 0.00 | 43 | 1007.1 |
| 20260504010044 | 79 | 198 | 2.6 | 7.0 | 0.00 | 0.00 | 0.00 | 42 | 1007.4 |
| 20260504004542 | 80 | 224 | 0.9 | 6.1 | 0.00 | 0.00 | 0.00 | 44 | 1007.6 |
| 20260504003043 | 79 | 205 | 3.5 | 7.8 | 0.00 | 0.00 | 0.00 | 43 | 1007.7 |
| 20260504001539 | 79 | 218 | 4.3 | 7.8 | 0.00 | 0.00 | 0.00 | 43 | 1007.8 |
| 20260504000051 | 80 | 330 | 3.5 | 5.2 | 0.00 | 0.00 | 0.00 | 42 | 1008.0 |
| 20260503234535 | 79 | 289 | 2.6 | 7.8 | 0.00 | 0.00 | 0.00 | 45 | 1008.1 |
| 20260503233037 | 79 | 215 | 1.7 | 6.1 | 0.00 | 0.00 | 0.00 | 47 | 1008.2 |
| 20260503231529 | 78 | 225 | 2.6 | 7.8 | 0.00 | 0.00 | 0.00 | 51 | 1008.4 |
| 20260503230028 | 78 | 224 | 5.2 | 9.6 | 0.00 | 0.00 | 0.00 | 54 | 1008.5 |
| 20260503224529 | 78 | 219 | 3.5 | 7.0 | 0.00 | 0.00 | 0.00 | 53 | 1008.8 |
| 20260503223024 | 79 | 209 | 5.2 | 8.7 | 0.00 | 0.00 | 0.00 | 49 | 1009.0 |
| 20260503221521 | 78 | 315 | 1.7 | 8.7 | 0.00 | 0.00 | 0.00 | 49 | 1009.1 |
| 20260503220022 | 78 | 349 | 1.7 | 8.7 | 0.00 | 0.00 | 0.00 | 48 | 1009.1 |
| 20260503214517 | 77 | 270 | 3.5 | 9.6 | 0.00 | 0.00 | 0.00 | 51 | 1009.3 |
| 20260503213015 | 78 | 225 | 3.5 | 9.6 | 0.00 | 0.00 | 0.00 | 50 | 1009.6 |
| 20260503211514 | 77 | 207 | 1.7 | 7.0 | 0.00 | 0.00 | 0.00 | 51 | 1009.6 |
| 20260503210012 | 76 | 204 | 3.5 | 7.0 | 0.00 | 0.00 | 0.00 | 52 | 1009.9 |
| 20260503204508 | 76 | 238 | 4.3 | 9.6 | 0.00 | 0.00 | 0.00 | 54 | 1009.9 |
| 20260503203006 | 75 | 316 | 0.9 | 7.0 | 0.00 | 0.00 | 0.00 | 53 | 1010.4 |
| 20260503201504 | 75 | 220 | 1.7 | 7.8 | 0.00 | 0.00 | 0.00 | 57 | 1010.5 |
| 20260503200004 | 75 | 313 | 4.3 | 7.8 | 0.00 | 0.00 | 0.00 | 57 | 1010.6 |
| 20260503194502 | 76 | 224 | 4.3 | 10.4 | 0.00 | 0.00 | 0.00 | 61 | 1010.7 |
| 20260503193104 | 76 | 218 | 3.5 | 7.8 | 0.00 | 0.00 | 0.00 | 55 | 1010.7 |
| 20260503191558 | 76 | 249 | 4.3 | 7.0 | 0.00 | 0.00 | 0.00 | 55 | 1010.7 |
| 20260503190058 | 75 | 265 | 0.9 | 7.8 | 0.00 | 0.00 | 0.00 | 54 | 1010.8 |
| 20260503184611 | 75 | 328 | 3.5 | 6.1 | 0.00 | 0.00 | 0.00 | 57 | 1010.8 |
| 20260503183051 | 73 | 311 | 0.9 | 6.1 | 0.00 | 0.00 | 0.00 | 53 | 1011.1 |
| 20260503181551 | 73 | 348 | 0.9 | 5.2 | 0.00 | 0.00 | 0.00 | 55 | 1011.3 |
| 20260503180042 | 72 | 19 | 1.7 | 5.2 | 0.00 | 0.00 | 0.00 | 56 | 1011.4 |
| 20260503174538 | 71 | 37 | 0.9 | 5.2 | 0.00 | 0.00 | 0.00 | 57 | 1011.7 |